Vertical_Velocity
2 1 -3 0 -2 1 -1 2 -0 3 -6 3 2 6 15 -6 5 4 7 7 8 5 5 10 17 83 -14 12 25 42 30 5
-3 -2 -1 -2 2 10 6 8 9 6 10 -1 -5 -9 3 5 6 11 -5 -1 10 7 5 -5 3 13 10 -8 -8 18 29 7
-1 -2 -2 -2 0 -3 -3 0 -0 -1 5 4 -0 2 -0 4 2 5 2 5 5 3 9 1 -3 1 -1 2 -3 12 1 29
3 4 2 -3 -5 -6 -7 -3 4 -1 4 2 5 11 9 1 -6 6 6 6 1 1 -4 -2 1 -2 -3 30 -12 1 -12 43
-1 2 4 2 2 3 4 6 -2 4 12 21 12 8 -1 5 -1 3 4 6 6 5 -4 -3 -5 3 22 7 35 7 -8 4
5 4 3 7 11 8 0 -0 2 -1 1 3 6 18 13 8 6 6 7 8 2 4 3 3 -10 -6 4 12 29 -9 16 -10
7 3 -1 -1 -4 1 -3 14 4 3 6 5 2 7 4 0 5 7 7 3 6 2 7 -1 -9 -5 -20 6 -1 -17 6 -17
1 -1 3 -4 2 0 0 -3 5 -1 -2 3 4 3 5 5 -7 -1 10 -7 8 -5 20 0 -10 8 -2 -2 2 15 -1 -8
-1 1 0 -2 -4 -5 -0 -3 -5 3 -3 -8 -5 -11 -15 2 7 -25 7 -18 3 3 4 8 3 5 0 2 -15 -12 4 6
-3 1 -2 -4 -16 -6 -12 -6 -13 -10 -15 -1 -3 11 5 -2 -8 4 -1 -12 -25 10 6 5 2 0 -1 -12 13 -25 -2 10
-15 -19 -19 -14 -11 -10 -12 -35 -12 23 6 -5 -4 2 -1 -3 -1 -2 1 1 -5 9 -13 -28 11 23 -6 16 6 3 -1 -6
-9 -6 -4 -4 -1 -1 -14 -4 5 11 -9 -8 -3 -3 0 -5 -0 -3 4 1 -1 -1 7 -4 -8 7 -7 -0 6 8 -7 -6
-3 -3 -1 -3 6 2 -0 4 6 -2 1 -1 7 -3 -1 1 3 0 2 -3 -2 -5 4 3 0 0 5 -13 -13 2 -13 -2
-4 -5 -6 -8 -1 4 9 11 1 -1 3 -0 2 1 -1 0 -4 -3 1 0 -1 2 -3 1 1 3 6 2 -3 25 -13 -9
1 2 3 -2 -8 -1 8 11 8 4 2 2 1 -3 -5 -2 -1 1 -1 -2 -1 3 3 -0 -2 5 5 3 -3 4 3 -11
4 -2 3 2 -9 -1 12 10 7 7 2 1 -0 -1 -1 -1 1 0 1 0 -0 -1 1 4 5 3 -1 -3 1 11 -4 2
-6 -2 -4 -20 16 1 3 3 4 9 3 -3 0 -2 -3 -0 -1 -2 -4 -3 0 2 7 1 0 1 -3 3 1 11 11 -2
-3 -3 -7 12 19 18 14 -1 3 8 -4 -1 -4 -1 1 1 -1 -0 1 3 1 -2 -1 -3 -3 -4 3 -2 33 -8 -1 -4
-0 -3 3 -6 13 2 -1 6 10 -1 -1 0 1 2 -1 -3 -1 -3 -3 -2 -3 -3 -5 3 0 2 3 4 1 -6 6 0
Height
3070 3069 3070 3070 3070 3070 3071 3072 3073 3073 3073 3075 3076 3077 3079 3079 3080 3080 3079 3081 3081 3084 3082 3081 3079 3072 3079 3086 3070 3081 3090 3096
3061 3060 3060 3059 3059 3060 3062 3063 3064 3065 3064 3065 3065 3067 3070 3069 3070 3073 3072 3072 3072 3073 3075 3073 3079 3077 3078 3075 3073 3071 3077 3083
3053 3051 3049 3048 3049 3052 3053 3054 3054 3054 3054 3053 3053 3056 3058 3060 3061 3063 3062 3061 3061 3064 3067 3067 3069 3070 3068 3064 3066 3065 3059 3068
3046 3043 3042 3039 3039 3039 3041 3042 3041 3042 3042 3042 3044 3043 3045 3048 3051 3053 3053 3052 3051 3050 3052 3056 3056 3057 3056 3055 3059 3056 3056 3064
3040 3038 3036 3034 3033 3032 3031 3030 3031 3033 3033 3033 3033 3033 3033 3035 3039 3042 3042 3042 3041 3041 3041 3044 3047 3047 3044 3046 3047 3046 3049 3053
3034 3032 3031 3030 3028 3026 3024 3024 3023 3022 3024 3026 3026 3024 3023 3025 3026 3029 3032 3033 3034 3034 3031 3034 3036 3036 3040 3037 3034 3042 3041 3047
3027 3023 3023 3022 3021 3021 3022 3021 3018 3017 3016 3016 3016 3015 3014 3015 3016 3020 3021 3021 3022 3025 3021 3021 3023 3028 3028 3030 3032 3031 3035 3035
3021 3020 3018 3017 3015 3014 3013 3012 3011 3009 3009 3008 3008 3008 3008 3007 3008 3008 3010 3011 3014 3016 3012 3010 3013 3016 3019 3019 3021 3027 3029 3031
3014 3012 3009 3007 3003 3002 3001 3002 3003 3002 3000 2997 2996 2996 2994 2997 2996 2998 2999 2996 3002 3004 3003 3004 3004 3009 3011 3014 3015 3019 3021 3023
3007 3005 3003 2999 2996 2992 2992 2992 2994 2995 2993 2991 2990 2987 2987 2985 2986 2987 2985 2984 2987 2989 2990 2993 2994 2997 3003 3005 3009 3007 3012 3015
3000 2997 2995 2992 2989 2985 2984 2984 2984 2980 2976 2977 2976 2974 2973 2971 2969 2970 2969 2969 2970 2971 2975 2979 2982 2985 2990 2994 2997 2999 3000 3005
2994 2990 2986 2983 2979 2976 2975 2975 2974 2968 2967 2968 2967 2965 2964 2962 2959 2958 2957 2955 2956 2956 2958 2960 2969 2972 2976 2979 2983 2988 2993 2998
2989 2985 2980 2976 2971 2970 2965 2963 2962 2958 2957 2957 2956 2956 2955 2954 2953 2950 2947 2945 2946 2948 2949 2950 2952 2958 2961 2964 2970 2975 2981 2988
2979 2975 2971 2964 2958 2955 2953 2951 2951 2951 2951 2950 2950 2949 2948 2946 2945 2943 2940 2938 2937 2939 2939 2940 2943 2946 2949 2953 2958 2961 2964 2973
2973 2966 2960 2955 2948 2941 2941 2944 2944 2946 2945 2944 2943 2941 2940 2938 2936 2934 2932 2930 2929 2929 2929 2929 2932 2935 2939 2942 2947 2951 2954 2960
2968 2960 2952 2947 2941 2937 2938 2938 2939 2941 2940 2939 2938 2936 2934 2930 2927 2925 2923 2921 2919 2918 2917 2917 2919 2921 2924 2931 2935 2939 2943 2949
2960 2953 2947 2942 2936 2932 2934 2934 2936 2937 2936 2934 2933 2931 2928 2924 2920 2916 2913 2909 2906 2903 2899 2900 2903 2906 2910 2917 2920 2925 2931 2936
2954 2949 2943 2936 2932 2927 2928 2929 2933 2934 2932 2930 2928 2925 2922 2918 2914 2910 2905 2901 2897 2890 2885 2882 2884 2889 2895 2901 2905 2912 2917 2923
2950 2946 2939 2934 2931 2929 2928 2931 2931 2929 2927 2925 2922 2919 2916 2912 2908 2903 2898 2893 2886 2879 2874 2870 2868 2871 2878 2887 2894 2899 2904 2910